QPF
0.00 0.00 0.00 0.00 0.00 0.00 0.00 0.00 0.00 0.00 0.00 0.00 0.00 0.00 0.00 0.00 0.00 0.00 0.00 0.00 0.00 0.00 0.00 0.00 0.00 0.00 0.00 0.00 0.00 0.00 0.00 0.00 0.00 0.00 0.00 0.00 0.00 0.00 0.00 0.00 0.00 0.00 0.00 0.00 0.00 0.00 0.00
0.00 0.00 0.00 0.00 0.00 0.00 0.00 0.00 0.00 0.00 0.00 0.00 0.00 0.00 0.00 0.00 0.00 0.00 0.00 0.00 0.00 0.00 0.00 0.00 0.00 0.00 0.00 0.00 0.00 0.00 0.00 0.00 0.00 0.00 0.00 0.00 0.00 0.00 0.00 0.00 0.00 0.00 0.00 0.00 0.00 0.00 0.00
0.00 0.00 0.00 0.00 0.00 0.00 0.00 0.00 0.00 0.00 0.00 0.00 0.00 0.00 0.00 0.00 0.00 0.00 0.00 0.00 0.00 0.00 0.00 0.00 0.00 0.00 0.00 0.00 0.00 0.00 0.00 0.00 0.00 0.00 0.00 0.00 0.00 0.00 0.00 0.00 0.00 0.00 0.00 0.00 0.00 0.00 0.00
0.00 0.00 0.00 0.00 0.00 0.00 0.00 0.00 0.00 0.00 0.00 0.00 0.00 0.00 0.00 0.00 0.00 0.00 0.00 0.00 0.00 0.00 0.00 0.00 0.00 0.00 0.00 0.00 0.00 0.00 0.00 0.00 0.00 0.00 0.00 0.00 0.00 0.00 0.00 0.00 0.00 0.00 0.00 0.00 0.00 0.00 0.00
0.00 0.00 0.00 0.00 0.00 0.00 0.00 0.00 0.00 0.00 0.00 0.00 0.00 0.00 0.00 0.00 0.00 0.00 0.00 0.00 0.00 0.00 0.00 0.00 0.00 0.00 0.00 0.00 0.00 0.00 0.00 0.00 0.00 0.00 0.00 0.00 0.00 0.00 0.00 0.00 0.00 0.00 0.00 0.00 0.00 0.00 0.00
0.00 0.00 0.00 0.00 0.00 0.00 0.00 0.00 0.00 0.00 0.00 0.00 0.00 0.00 0.00 0.00 0.00 0.00 0.00 0.00 0.00 0.00 0.00 0.00 0.00 0.00 0.00 0.00 0.00 0.00 0.00 0.00 0.00 0.00 0.00 0.00 0.00 0.00 0.00 0.00 0.00 0.00 0.00 0.00 0.00 0.00 0.00
0.00 0.00 0.00 0.00 0.00 0.00 0.00 0.00 0.00 0.00 0.00 0.00 0.00 0.00 0.00 0.00 0.00 0.00 0.00 0.00 0.00 0.00 0.00 0.00 0.00 0.00 0.00 0.00 0.00 0.00 0.00 0.00 0.00 0.00 0.00 0.00 0.00 0.00 0.00 0.00 0.00 0.00 0.00 0.00 0.00 0.00 0.00
0.00 0.00 0.00 0.00 0.00 0.00 0.00 0.00 0.00 0.00 0.00 0.00 0.00 0.00 0.00 0.00 0.00 0.00 0.00 0.00 0.00 0.00 0.00 0.00 0.00 0.00 0.00 0.00 0.00 0.00 0.00 0.00 0.00 0.00 0.00 0.00 0.00 0.00 0.00 0.00 0.00 0.00 0.00 0.00 0.00 0.00 0.00
0.00 0.00 0.00 0.00 0.00 0.00 0.00 0.00 0.00 0.00 0.00 0.00 0.00 0.00 0.00 0.00 0.00 0.00 0.00 0.00 0.00 0.00 0.00 0.00 0.00 0.00 0.00 0.00 0.00 0.00 0.00 0.00 0.00 0.00 0.00 0.00 0.00 0.00 0.00 0.00 0.00 0.00 0.00 0.00 0.00 0.00 0.00
0.00 0.00 0.00 0.00 0.00 0.00 0.00 0.00 0.00 0.00 0.00 0.00 0.00 0.00 0.00 0.00 0.00 0.00 0.00 0.00 0.00 0.00 0.00 0.00 0.00 0.00 0.00 0.00 0.00 0.00 0.00 0.00 0.00 0.00 0.00 0.00 0.00 0.00 0.00 0.00 0.00 0.00 0.00 0.00 0.00 0.00 0.00
0.00 0.00 0.00 0.00 0.00 0.00 0.00 0.00 0.00 0.00 0.00 0.00 0.00 0.00 0.00 0.00 0.00 0.00 0.00 0.00 0.00 0.00 0.00 0.00 0.00 0.00 0.00 0.00 0.00 0.00 0.00 0.00 0.00 0.00 0.00 0.00 0.00 0.00 0.00 0.00 0.00 0.00 0.00 0.00 0.00 0.00 0.00
0.00 0.00 0.00 0.00 0.00 0.00 0.00 0.00 0.00 0.00 0.00 0.00 0.00 0.00 0.00 0.00 0.00 0.00 0.00 0.00 0.00 0.00 0.00 0.00 0.00 0.00 0.00 0.00 0.00 0.00 0.00 0.00 0.00 0.00 0.00 0.00 0.00 0.00 0.00 0.00 0.00 0.00 0.00 0.00 0.00 0.00 0.01
0.00 0.00 0.00 0.00 0.00 0.00 0.00 0.00 0.00 0.00 0.00 0.00 0.00 0.00 0.00 0.00 0.00 0.00 0.00 0.00 0.00 0.00 0.00 0.00 0.00 0.00 0.00 0.00 0.00 0.00 0.00 0.00 0.00 0.00 0.00 0.00 0.00 0.00 0.00 0.00 0.00 0.00 0.00 0.00 0.00 0.00 0.01
0.00 0.00 0.00 0.00 0.00 0.00 0.00 0.00 0.00 0.00 0.00 0.00 0.00 0.00 0.00 0.00 0.00 0.00 0.00 0.00 0.00 0.00 0.00 0.00 0.00 0.00 0.00 0.00 0.00 0.00 0.00 0.00 0.00 0.00 0.00 0.00 0.00 0.00 0.00 0.00 0.00 0.00 0.00 0.00 0.00 0.01 0.03
0.00 0.00 0.00 0.00 0.00 0.00 0.00 0.00 0.00 0.00 0.00 0.00 0.00 0.00 0.00 0.00 0.00 0.00 0.00 0.00 0.00 0.00 0.00 0.00 0.00 0.00 0.00 0.00 0.00 0.00 0.00 0.00 0.00 0.00 0.00 0.00 0.00 0.00 0.00 0.00 0.00 0.00 0.00 0.00 0.02 0.01 0.02
0.00 0.00 0.00 0.00 0.00 0.00 0.00 0.00 0.00 0.00 0.00 0.00 0.00 0.00 0.00 0.00 0.00 0.00 0.00 0.00 0.00 0.00 0.00 0.00 0.00 0.00 0.00 0.00 0.00 0.00 0.00 0.00 0.00 0.00 0.00 0.00 0.00 0.00 0.00 0.00 0.00 0.00 0.00 0.01 0.01 0.01 0.03
0.00 0.00 0.00 0.00 0.00 0.00 0.00 0.00 0.00 0.00 0.00 0.00 0.00 0.00 0.00 0.00 0.00 0.00 0.00 0.00 0.00 0.00 0.00 0.00 0.00 0.00 0.00 0.00 0.00 0.00 0.00 0.00 0.00 0.00 0.00 0.00 0.00 0.00 0.00 0.00 0.00 0.00 0.00 0.00 0.01 0.02 0.07
0.00 0.00 0.00 0.00 0.00 0.00 0.00 0.00 0.00 0.00 0.00 0.00 0.00 0.00 0.00 0.00 0.00 0.00 0.00 0.00 0.00 0.00 0.00 0.00 0.00 0.00 0.00 0.00 0.00 0.00 0.00 0.00 0.00 0.00 0.00 0.00 0.00 0.00 0.00 0.00 0.00 0.00 0.00 0.00 0.01 0.06 0.03
0.00 0.00 0.00 0.00 0.00 0.00 0.00 0.00 0.00 0.00 0.00 0.00 0.00 0.00 0.00 0.00 0.00 0.00 0.00 0.00 0.00 0.00 0.00 0.00 0.00 0.00 0.00 0.00 0.00 0.00 0.00 0.00 0.00 0.00 0.00 0.00 0.00 0.00 0.00 0.00 0.00 0.00 0.00 0.00 0.00 0.04 0.02
0.00 0.00 0.00 0.00 0.00 0.00 0.00 0.00 0.00 0.00 0.00 0.00 0.00 0.00 0.00 0.00 0.00 0.00 0.00 0.00 0.00 0.00 0.00 0.00 0.00 0.00 0.00 0.00 0.00 0.00 0.00 0.00 0.00 0.00 0.00 0.00 0.00 0.00 0.00 0.00 0.00 0.00 0.01 0.00 0.00 0.02 0.06
0.00 0.00 0.00 0.00 0.00 0.00 0.00 0.00 0.00 0.00 0.00 0.00 0.00 0.00 0.00 0.00 0.00 0.00 0.00 0.00 0.00 0.00 0.00 0.00 0.00 0.00 0.00 0.00 0.00 0.00 0.00 0.00 0.00 0.00 0.00 0.00 0.00 0.00 0.00 0.00 0.00 0.03 0.04 0.01 0.01 0.02 0.02
0.00 0.00 0.00 0.00 0.00 0.00 0.00 0.00 0.00 0.00 0.00 0.00 0.00 0.00 0.00 0.00 0.00 0.00 0.00 0.00 0.00 0.00 0.00 0.00 0.00 0.00 0.00 0.00 0.00 0.00 0.00 0.00 0.00 0.00 0.00 0.00 0.00 0.00 0.00 0.00 0.00 0.04 0.10 0.03 0.01 0.01 0.00
0.00 0.00 0.00 0.00 0.00 0.00 0.00 0.00 0.00 0.00 0.00 0.00 0.00 0.00 0.00 0.00 0.00 0.00 0.00 0.00 0.00 0.00 0.00 0.00 0.00 0.00 0.00 0.00 0.00 0.00 0.00 0.00 0.00 0.00 0.00 0.00 0.00 0.00 0.00 0.00 0.00 0.02 0.05 0.04 0.01 0.00 0.00
0.00 0.00 0.00 0.00 0.00 0.00 0.00 0.00 0.00 0.00 0.00 0.00 0.00 0.00 0.00 0.00 0.00 0.00 0.00 0.00 0.00 0.00 0.00 0.00 0.00 0.00 0.00 0.00 0.00 0.00 0.00 0.00 0.00 0.00 0.00 0.00 0.00 0.00 0.02 0.02 0.02 0.07 0.07 0.05 0.00 0.00 0.00
0.00 0.00 0.00 0.00 0.00 0.00 0.00 0.00 0.00 0.00 0.00 0.00 0.00 0.00 0.00 0.00 0.00 0.00 0.00 0.00 0.00 0.00 0.00 0.00 0.00 0.00 0.00 0.00 0.00 0.00 0.00 0.00 0.00 0.00 0.00 0.00 0.00 0.00 0.03 0.04 0.03 0.05 0.03 0.01 0.00 0.00 0.00
0.00 0.00 0.00 0.00 0.00 0.00 0.00 0.00 0.00 0.00 0.00 0.00 0.00 0.00 0.00 0.00 0.00 0.00 0.00 0.00 0.00 0.00 0.00 0.00 0.00 0.00 0.00 0.00 0.00 0.00 0.00 0.00 0.00 0.00 0.00 0.00 0.00 0.00 0.05 0.04 0.03 0.03 0.01 0.01 0.00 0.00 0.00
0.00 0.00 0.00 0.00 0.00 0.00 0.00 0.00 0.00 0.00 0.00 0.00 0.00 0.00 0.00 0.00 0.00 0.00 0.00 0.00 0.00 0.00 0.00 0.00 0.00 0.00 0.00 0.00 0.00 0.00 0.00 0.00 0.00 0.00 0.00 0.00 0.00 0.01 0.04 0.01 0.02 0.01 0.02 0.00 0.00 0.00 0.00
0.00 0.00 0.00 0.00 0.00 0.00 0.00 0.00 0.00 0.00 0.00 0.00 0.00 0.00 0.00 0.00 0.00 0.00 0.00 0.00 0.00 0.00 0.00 0.00 0.00 0.00 0.00 0.00 0.00 0.00 0.00 0.00 0.00 0.00 0.00 0.01 0.01 0.01 0.03 0.01 0.01 0.00 0.00 0.00 0.00 0.00 0.00
0.00 0.00 0.00 0.00 0.00 0.00 0.00 0.00 0.00 0.00 0.00 0.00 0.00 0.00 0.00 0.00 0.00 0.00 0.00 0.00 0.00 0.00 0.00 0.00 0.00 0.00 0.00 0.00 0.00 0.00 0.00 0.00 0.00 0.00 0.00 0.01 0.02 0.02 0.01 0.00 0.00 0.00 0.00 0.00 0.00 0.00 0.00
MSLP
1020.47 1020.56 1020.57 1020.51 1020.46 1020.23 1019.88 1019.62 1019.44 1019.14 1018.96 1018.68 1018.20 1017.69 1017.28 1016.94 1016.45 1015.92 1015.60 1015.23 1014.72 1014.53 1014.24 1013.86 1013.51 1013.32 1013.16 1011.23 1010.38 1010.33 1010.83 1010.48 1010.40 1010.00 1009.33 1008.79 1008.45 1008.20 1007.62 1007.41 1007.48 1007.25 1006.99 1007.32 1007.47 1007.65 1007.75
1020.13 1020.38 1020.41 1020.40 1020.29 1020.11 1019.83 1019.56 1019.30 1018.93 1018.68 1018.45 1017.96 1017.46 1016.97 1016.71 1016.33 1015.61 1015.20 1014.88 1014.46 1014.07 1014.01 1013.74 1013.34 1013.00 1011.88 1010.66 1010.50 1010.31 1010.24 1009.94 1009.52 1009.24 1008.77 1008.69 1008.13 1008.17 1007.85 1007.61 1007.44 1007.43 1007.51 1007.50 1007.52 1007.57 1008.00
1019.91 1020.16 1020.22 1020.23 1020.17 1020.00 1019.72 1019.47 1019.07 1018.74 1018.46 1018.21 1017.71 1017.21 1016.73 1016.40 1016.10 1015.43 1014.87 1014.54 1014.00 1013.73 1013.53 1013.55 1013.14 1012.49 1010.85 1010.67 1010.46 1010.11 1010.00 1009.52 1009.45 1008.97 1008.43 1008.46 1008.35 1008.21 1008.04 1007.66 1008.02 1007.81 1007.47 1007.53 1007.60 1007.57 1007.92
1019.74 1019.91 1019.88 1020.08 1019.98 1019.81 1019.64 1019.33 1018.75 1018.62 1018.25 1018.01 1017.47 1016.88 1016.60 1016.04 1015.78 1015.16 1014.52 1014.12 1013.62 1013.39 1013.07 1013.17 1012.88 1011.95 1010.58 1010.50 1010.34 1009.95 1009.86 1009.27 1009.27 1009.16 1008.93 1008.78 1008.57 1008.24 1008.25 1008.36 1007.94 1007.49 1007.49 1006.89 1007.76 1008.02 1008.25
1019.53 1019.67 1019.68 1019.87 1019.76 1019.72 1019.45 1019.05 1018.54 1018.50 1018.09 1017.69 1017.30 1016.66 1016.20 1015.75 1015.51 1014.81 1014.19 1013.65 1013.25 1013.06 1012.98 1012.88 1012.55 1011.29 1010.59 1010.35 1010.35 1010.43 1010.28 1009.74 1009.13 1009.07 1009.01 1008.97 1008.62 1008.39 1008.45 1007.81 1007.41 1007.37 1006.61 1007.36 1007.48 1008.61 1008.57
1019.25 1019.29 1019.67 1019.59 1019.55 1019.58 1019.18 1018.83 1018.44 1018.33 1017.89 1017.37 1017.10 1016.50 1015.81 1015.47 1015.23 1014.57 1013.57 1013.38 1012.86 1013.02 1012.74 1012.22 1011.17 1011.15 1010.97 1011.08 1011.10 1010.85 1010.51 1010.25 1009.14 1008.86 1008.67 1008.53 1008.38 1008.08 1008.14 1007.68 1007.11 1007.60 1007.64 1007.77 1008.02 1008.81 1009.03
1019.02 1019.07 1019.42 1019.53 1019.62 1019.37 1018.95 1018.66 1018.44 1018.05 1017.53 1017.14 1016.88 1016.16 1015.60 1015.25 1014.88 1014.27 1013.03 1012.51 1012.87 1012.46 1012.33 1012.26 1012.54 1011.94 1011.79 1011.78 1011.49 1011.03 1010.81 1010.07 1009.21 1008.89 1008.45 1009.03 1008.49 1009.31 1009.85 1009.74 1009.54 1009.36 1009.06 1008.74 1008.78 1009.77 1009.78
1018.67 1019.10 1019.24 1019.35 1019.39 1019.21 1018.78 1018.58 1018.08 1017.68 1017.39 1017.06 1016.52 1015.99 1015.45 1014.90 1014.52 1013.82 1013.53 1012.37 1013.30 1013.31 1013.41 1013.21 1012.71 1012.30 1012.53 1012.47 1011.61 1011.52 1011.02 1010.06 1009.53 1009.27 1009.54 1009.57 1010.38 1011.32 1011.24 1010.94 1010.59 1010.16 1009.73 1009.29 1009.41 1009.90 1010.26
1018.51 1018.83 1019.20 1019.20 1019.18 1018.93 1018.67 1018.26 1017.91 1017.67 1017.06 1016.60 1016.35 1015.76 1015.21 1014.68 1013.78 1013.74 1013.23 1013.71 1014.00 1013.58 1013.05 1013.42 1013.13 1012.87 1013.21 1013.13 1013.12 1012.99 1012.60 1011.64 1010.72 1010.47 1010.57 1010.77 1012.41 1012.37 1012.08 1011.75 1011.30 1010.67 1010.70 1010.73 1010.68 1010.50 1010.66
1018.51 1018.60 1018.84 1018.91 1018.86 1018.66 1018.44 1018.06 1017.69 1017.30 1016.87 1016.36 1016.13 1015.53 1015.00 1014.24 1014.15 1013.76 1013.61 1014.11 1014.02 1013.99 1013.24 1014.18 1013.20 1013.66 1013.63 1013.35 1013.58 1014.09 1013.92 1013.41 1012.29 1012.15 1012.23 1012.87 1013.46 1013.07 1012.73 1012.57 1012.73 1011.45 1011.96 1011.80 1011.25 1010.78 1009.75
1018.24 1018.32 1018.65 1018.78 1018.65 1018.61 1018.11 1017.93 1017.52 1017.10 1016.73 1016.28 1015.86 1015.30 1014.78 1014.32 1013.70 1013.53 1014.22 1014.18 1014.15 1013.96 1014.13 1015.07 1014.12 1014.49 1014.43 1014.37 1015.10 1014.44 1014.45 1013.36 1013.39 1013.25 1013.33 1014.33 1014.24 1014.05 1013.66 1014.10 1013.85 1012.51 1012.72 1012.18 1011.71 1011.23 1011.20
1017.94 1018.05 1018.39 1018.31 1018.27 1018.06 1017.96 1017.81 1017.13 1016.91 1016.66 1016.08 1015.68 1015.11 1014.64 1014.08 1013.66 1014.50 1014.43 1014.25 1014.01 1014.01 1015.07 1015.15 1014.84 1014.86 1014.69 1015.29 1015.67 1015.46 1014.93 1014.75 1015.27 1014.48 1014.53 1015.04 1015.32 1015.44 1015.51 1014.88 1014.57 1013.84 1012.60 1012.26 1012.09 1011.55 1011.65
1017.38 1017.60 1017.89 1018.11 1018.17 1017.99 1017.50 1017.25 1017.05 1016.88 1016.37 1015.82 1015.52 1014.91 1014.41 1014.17 1014.19 1014.54 1014.35 1013.91 1014.18 1014.57 1016.34 1015.97 1015.79 1015.80 1015.88 1016.32 1016.52 1016.70 1016.07 1016.29 1016.57 1015.58 1015.38 1015.69 1015.83 1016.06 1016.14 1014.79 1014.55 1014.16 1013.04 1012.15 1012.36 1012.33 1012.99
1016.95 1017.56 1017.72 1017.80 1017.78 1017.68 1017.34 1017.22 1016.96 1016.35 1015.97 1015.66 1015.41 1014.90 1015.10 1014.80 1014.59 1014.51 1014.26 1013.59 1014.71 1016.14 1016.19 1016.73 1016.54 1016.38 1016.59 1017.36 1017.66 1017.60 1017.29 1017.62 1018.32 1017.96 1017.13 1016.83 1016.13 1017.13 1017.36 1016.76 1016.04 1015.19 1014.79 1014.80 1014.43 1013.56 1014.10
1016.83 1017.20 1017.30 1017.48 1017.57 1017.16 1016.99 1016.79 1016.58 1016.02 1015.92 1015.38 1015.41 1014.80 1014.66 1014.98 1014.79 1014.74 1013.87 1015.22 1016.25 1016.54 1016.98 1016.94 1016.87 1016.66 1017.24 1017.84 1017.92 1018.24 1019.01 1019.55 1020.11 1019.88 1019.36 1019.05 1018.33 1018.31 1018.13 1017.67 1017.00 1016.23 1016.56 1017.65 1016.95 1016.08 1015.89
1016.51 1016.87 1016.92 1017.21 1016.92 1016.81 1016.75 1016.37 1016.28 1015.86 1015.67 1015.22 1014.78 1014.51 1014.82 1015.20 1015.04 1014.28 1014.32 1016.53 1017.18 1017.77 1017.73 1017.54 1017.05 1017.67 1017.52 1018.20 1018.23 1018.84 1019.90 1021.21 1021.14 1021.14 1020.88 1020.62 1019.61 1019.04 1018.66 1017.89 1017.85 1017.84 1018.19 1018.02 1017.92 1017.98 1017.71
1016.19 1016.41 1016.53 1016.60 1016.59 1016.57 1016.27 1016.28 1016.16 1015.49 1015.39 1015.25 1014.71 1013.95 1015.13 1015.12 1014.85 1014.09 1015.65 1017.00 1017.91 1018.60 1018.23 1018.18 1018.01 1018.19 1018.70 1018.85 1019.18 1019.88 1021.13 1021.86 1021.92 1021.53 1021.36 1020.90 1020.26 1019.45 1018.84 1018.99 1018.96 1018.76 1019.51 1019.91 1020.06 1020.32 1019.61
1015.74 1016.12 1016.10 1016.14 1016.45 1016.08 1016.23 1015.78 1015.57 1015.43 1015.25 1015.15 1014.49 1013.88 1015.06 1014.96 1014.49 1015.53 1016.46 1017.33 1018.36 1018.78 1018.77 1018.97 1018.98 1019.06 1019.37 1019.85 1020.18 1020.74 1021.53 1022.15 1022.62 1022.19 1021.49 1021.58 1020.90 1019.64 1019.80 1020.18 1020.25 1020.33 1021.54 1021.75 1021.53 1021.53 1020.78
1015.41 1015.76 1015.76 1015.93 1015.96 1015.93 1015.69 1015.42 1015.17 1015.28 1015.07 1014.45 1013.91 1014.20 1014.96 1014.84 1014.82 1016.03 1017.64 1018.31 1019.05 1019.02 1019.48 1019.48 1019.78 1020.07 1020.27 1020.56 1020.95 1021.51 1022.16 1022.97 1022.98 1022.42 1022.26 1021.81 1021.12 1020.35 1020.02 1020.67 1020.92 1022.14 1022.81 1022.82 1022.88 1022.57 1021.65
1014.96 1015.47 1015.55 1015.60 1015.63 1015.53 1015.08 1014.96 1014.90 1015.06 1014.82 1014.70 1013.78 1013.92 1014.70 1015.26 1015.57 1015.92 1016.90 1018.38 1019.28 1020.15 1020.33 1020.43 1020.70 1020.67 1020.74 1021.09 1021.46 1021.88 1022.37 1023.07 1023.25 1022.93 1023.04 1022.43 1021.65 1021.39 1021.03 1022.23 1023.21 1023.37 1023.50 1023.16 1022.88 1022.64 1022.43
1014.78 1015.11 1015.17 1015.13 1015.20 1014.94 1014.85 1014.70 1014.59 1014.85 1014.89 1014.61 1013.98 1015.17 1016.07 1016.20 1016.83 1017.01 1017.07 1018.24 1019.15 1020.07 1020.70 1020.85 1021.06 1021.14 1021.17 1021.36 1021.75 1022.17 1022.79 1023.08 1023.17 1023.19 1022.83 1022.41 1021.99 1022.21 1022.63 1023.15 1023.95 1024.43 1024.31 1023.93 1023.26 1023.24 1022.91
1014.50 1014.69 1014.67 1014.77 1014.86 1014.61 1014.42 1014.46 1014.53 1014.67 1014.58 1014.06 1014.20 1014.74 1016.06 1017.10 1017.41 1017.00 1017.63 1019.15 1019.71 1020.84 1021.01 1021.22 1021.29 1021.88 1022.00 1022.02 1022.50 1022.58 1022.77 1022.95 1023.25 1023.05 1022.88 1022.91 1022.66 1023.02 1023.57 1024.14 1024.32 1024.92 1025.17 1024.85 1024.34 1023.83 1023.16
1014.03 1014.30 1014.31 1014.47 1014.45 1014.33 1014.13 1014.24 1014.20 1014.30 1014.31 1013.74 1015.07 1015.40 1014.81 1017.74 1017.52 1017.16 1018.84 1019.57 1020.50 1020.96 1022.38 1022.27 1022.44 1022.52 1022.94 1023.71 1023.77 1023.88 1023.99 1024.08 1024.12 1023.72 1023.36 1023.22 1023.19 1023.27 1023.90 1024.57 1024.89 1025.43 1026.67 1026.12 1025.79 1025.28 1024.36
1013.87 1013.92 1014.01 1014.14 1014.03 1013.93 1013.84 1013.74 1014.01 1013.61 1014.19 1013.57 1014.33 1014.39 1014.73 1017.78 1017.88 1018.64 1019.74 1020.16 1021.03 1021.59 1022.03 1023.29 1023.47 1023.35 1024.68 1024.82 1024.49 1024.53 1024.39 1024.28 1024.36 1024.49 1024.33 1023.65 1023.46 1023.75 1024.42 1025.06 1025.47 1027.22 1027.44 1027.02 1026.30 1025.94 1025.35
1013.57 1013.49 1013.69 1013.93 1013.59 1013.48 1013.35 1013.40 1013.39 1013.85 1014.33 1013.96 1014.82 1014.19 1015.35 1017.96 1019.49 1020.43 1020.77 1021.35 1022.06 1022.53 1023.18 1023.74 1024.48 1025.05 1025.18 1024.75 1023.91 1023.98 1023.95 1024.20 1024.56 1024.89 1024.69 1024.59 1024.04 1023.88 1024.62 1025.05 1026.56 1027.30 1028.10 1028.01 1027.30 1026.05 1025.65
1013.25 1013.30 1013.59 1013.37 1013.13 1013.03 1013.09 1013.15 1013.29 1013.93 1014.17 1014.30 1015.48 1015.02 1015.41 1017.27 1021.72 1021.87 1021.96 1022.30 1022.23 1022.71 1023.60 1024.62 1025.24 1025.47 1025.15 1024.21 1023.72 1023.89 1024.55 1024.91 1024.90 1024.90 1025.11 1025.02 1024.71 1024.52 1025.06 1025.08 1026.52 1028.23 1028.20 1027.94 1027.36 1026.16 1025.87
1013.09 1013.22 1013.18 1012.89 1012.90 1012.91 1012.99 1013.02 1013.28 1013.91 1013.98 1013.89 1015.90 1016.29 1015.85 1018.62 1023.17 1023.15 1022.89 1023.13 1023.73 1023.64 1023.78 1024.81 1025.15 1025.19 1025.25 1024.07 1024.06 1024.80 1025.51 1026.27 1026.12 1026.23 1026.17 1025.79 1025.81 1025.85 1025.78 1026.10 1027.56 1028.08 1027.78 1026.94 1026.87 1027.27 1026.27
1012.99 1012.98 1012.86 1012.82 1012.84 1013.02 1013.18 1013.19 1013.50 1013.81 1013.91 1013.88 1016.86 1016.60 1015.97 1019.90 1024.01 1024.40 1024.50 1024.39 1024.47 1024.41 1024.09 1025.50 1025.49 1025.22 1024.73 1024.69 1025.17 1026.07 1026.41 1027.34 1027.24 1027.71 1027.81 1027.81 1027.64 1027.56 1027.36 1027.00 1028.16 1028.16 1027.27 1027.22 1027.91 1027.32 1026.15
1012.84 1012.82 1012.80 1012.84 1012.96 1013.31 1013.39 1013.41 1013.88 1013.90 1013.93 1014.06 1016.48 1017.45 1017.05 1018.77 1024.71 1025.74 1026.02 1026.24 1026.09 1025.84 1025.20 1025.82 1025.77 1025.74 1026.04 1025.81 1026.21 1026.48 1026.93 1027.62 1027.73 1027.89 1028.43 1028.95 1029.91 1029.57 1029.02 1028.62 1028.74 1028.71 1028.42 1027.98 1027.57 1026.66 1025.93
Thickness
5602 5606 5609 5612 5616 5622 5628 5634 5639 5644 5648 5652 5658 5663 5668 5672 5676 5680 5683 5686 5690 5692 5696 5699 5702 5703 5706 5710 5709 5721 5718 5721 5720 5720 5717 5716 5711 5708 5702 5707 5707 5700 5703 5700 5698 5692 5689
5597 5599 5603 5608 5612 5617 5622 5629 5634 5640 5644 5648 5654 5660 5666 5669 5672 5679 5682 5685 5689 5694 5694 5697 5700 5703 5710 5698 5717 5718 5718 5720 5721 5719 5717 5715 5713 5712 5704 5700 5697 5699 5694 5690 5691 5687 5682
5591 5593 5598 5602 5607 5612 5617 5623 5630 5635 5640 5644 5651 5657 5663 5667 5669 5676 5682 5685 5690 5693 5695 5694 5698 5704 5709 5699 5714 5716 5717 5717 5718 5718 5713 5716 5714 5703 5700 5692 5694 5690 5681 5683 5682 5683 5674
5586 5588 5593 5596 5603 5608 5613 5618 5626 5631 5636 5640 5647 5655 5659 5666 5669 5674 5681 5685 5690 5693 5696 5694 5696 5702 5696 5711 5712 5714 5715 5716 5716 5714 5710 5710 5708 5700 5691 5690 5687 5681 5680 5671 5673 5672 5671
5585 5586 5588 5590 5597 5603 5608 5614 5621 5627 5632 5637 5643 5651 5659 5663 5667 5674 5680 5685 5689 5692 5693 5693 5696 5699 5689 5710 5700 5705 5706 5701 5708 5707 5705 5703 5699 5688 5685 5680 5675 5677 5671 5662 5664 5665 5661
5582 5583 5582 5586 5591 5597 5604 5611 5616 5622 5629 5636 5640 5647 5657 5662 5665 5671 5682 5684 5689 5688 5691 5693 5702 5690 5692 5684 5691 5695 5699 5696 5698 5697 5693 5691 5687 5680 5679 5677 5663 5659 5659 5660 5652 5652 5651
5578 5579 5578 5581 5584 5591 5599 5605 5610 5618 5625 5632 5636 5645 5653 5659 5664 5670 5683 5689 5686 5684 5686 5678 5673 5676 5679 5684 5688 5686 5689 5690 5694 5689 5677 5677 5671 5652 5651 5656 5655 5651 5647 5644 5650 5641 5636
5576 5574 5575 5578 5580 5586 5594 5600 5607 5615 5622 5628 5634 5641 5649 5658 5663 5670 5675 5684 5676 5680 5666 5672 5674 5675 5674 5675 5671 5674 5684 5680 5680 5669 5672 5666 5643 5644 5647 5646 5643 5642 5638 5639 5642 5636 5627
5572 5573 5571 5574 5577 5583 5589 5596 5604 5609 5618 5626 5631 5639 5647 5655 5665 5667 5673 5670 5669 5673 5671 5663 5666 5664 5660 5664 5652 5655 5663 5666 5666 5660 5658 5649 5631 5638 5636 5633 5630 5635 5625 5619 5615 5622 5620
5567 5571 5571 5573 5576 5579 5585 5593 5601 5607 5615 5624 5629 5638 5646 5655 5661 5665 5667 5665 5666 5667 5662 5642 5654 5654 5655 5658 5647 5651 5651 5649 5651 5644 5643 5630 5630 5628 5628 5621 5615 5619 5616 5609 5608 5609 5613
5564 5568 5570 5571 5575 5577 5586 5592 5599 5606 5612 5622 5630 5638 5646 5653 5660 5666 5662 5662 5662 5663 5633 5637 5645 5652 5648 5640 5634 5641 5647 5651 5638 5637 5636 5614 5616 5614 5614 5602 5604 5610 5605 5601 5601 5601 5599
5562 5566 5568 5572 5576 5581 5586 5589 5599 5605 5612 5622 5630 5638 5645 5653 5660 5654 5656 5658 5660 5649 5611 5631 5637 5632 5637 5633 5628 5633 5636 5640 5629 5630 5626 5615 5615 5605 5596 5598 5594 5598 5600 5596 5594 5598 5582
5562 5566 5569 5571 5574 5579 5589 5594 5599 5604 5613 5623 5630 5639 5646 5650 5655 5652 5654 5658 5641 5620 5623 5622 5622 5624 5623 5617 5618 5616 5622 5613 5606 5618 5611 5610 5603 5600 5593 5594 5591 5584 5585 5580 5573 5572 5563
5560 5561 5565 5571 5574 5580 5588 5593 5598 5609 5617 5624 5630 5639 5640 5644 5648 5650 5652 5655 5617 5616 5622 5620 5619 5621 5614 5610 5607 5609 5611 5605 5597 5597 5602 5596 5599 5582 5575 5567 5559 5562 5563 5552 5545 5566 5565
5554 5558 5564 5569 5573 5583 5589 5595 5600 5611 5616 5626 5629 5639 5641 5641 5645 5645 5655 5603 5617 5622 5618 5616 5618 5619 5611 5607 5608 5605 5594 5587 5580 5580 5582 5570 5575 5570 5562 5556 5553 5548 5536 5531 5533 5551 5557
5551 5556 5563 5566 5576 5583 5589 5597 5602 5611 5617 5627 5636 5640 5640 5637 5639 5648 5636 5606 5613 5610 5611 5612 5615 5608 5612 5603 5607 5600 5588 5574 5571 5570 5568 5557 5555 5558 5551 5553 5546 5539 5540 5533 5540 5534 5540
5548 5555 5562 5569 5576 5583 5591 5596 5602 5614 5619 5625 5635 5643 5635 5635 5638 5644 5611 5612 5606 5603 5608 5608 5605 5603 5598 5598 5598 5588 5574 5569 5565 5565 5563 5559 5555 5552 5550 5534 5529 5535 5523 5525 5525 5520 5533
5547 5553 5562 5569 5574 5585 5588 5599 5606 5613 5620 5626 5635 5639 5633 5635 5637 5625 5618 5613 5604 5602 5604 5600 5600 5599 5595 5589 5586 5580 5571 5565 5557 5558 5558 5551 5549 5549 5540 5536 5536 5536 5518 5517 5523 5527 5530
5546 5553 5561 5568 5576 5583 5592 5600 5609 5613 5621 5633 5637 5635 5631 5633 5620 5615 5605 5599 5597 5600 5593 5595 5591 5590 5588 5583 5578 5572 5563 5554 5551 5553 5549 5550 5549 5547 5548 5542 5541 5514 5509 5508 5503 5505 5532
5545 5551 5559 5568 5576 5584 5596 5603 5609 5614 5622 5628 5637 5628 5629 5625 5627 5621 5612 5600 5594 5588 5585 5586 5583 5586 5584 5578 5574 5564 5559 5550 5545 5545 5535 5541 5545 5539 5546 5528 5517 5513 5511 5517 5523 5530 5521
5545 5552 5560 5570 5576 5587 5596 5604 5611 5614 5619 5628 5633 5614 5612 5614 5609 5609 5613 5605 5597 5591 5584 5584 5582 5580 5580 5574 5569 5561 5552 5547 5543 5537 5539 5540 5541 5537 5532 5529 5518 5507 5512 5516 5523 5516 5520
5543 5552 5562 5570 5577 5588 5598 5604 5609 5614 5620 5631 5628 5623 5612 5602 5602 5612 5606 5592 5591 5580 5583 5580 5579 5571 5571 5569 5561 5555 5550 5544 5535 5537 5532 5530 5534 5529 5519 5518 5522 5509 5509 5516 5518 5523 5530
5544 5552 5562 5570 5578 5588 5597 5604 5611 5616 5621 5631 5618 5617 5627 5584 5602 5616 5594 5591 5583 5581 5566 5571 5569 5569 5563 5550 5544 5538 5531 5525 5521 5521 5520 5518 5519 5523 5518 5508 5514 5525 5493 5505 5505 5508 5516
5541 5552 5561 5570 5580 5589 5598 5606 5610 5621 5621 5629 5626 5627 5625 5596 5601 5595 5587 5587 5578 5573 5570 5559 5559 5563 5543 5536 5533 5527 5522 5517 5510 5502 5501 5506 5511 5513 5505 5499 5522 5491 5485 5496 5507 5505 5506
5541 5553 5562 5569 5581 5591 5600 5607 5614 5617 5618 5625 5619 5629 5619 5595 5588 5582 5580 5576 5570 5566 5560 5556 5547 5538 5532 5533 5538 5526 5518 5508 5496 5485 5485 5486 5497 5506 5507 5512 5497 5492 5480 5483 5491 5512 5509
5542 5552 5560 5572 5583 5593 5600 5607 5613 5615 5618 5620 5613 5621 5620 5608 5569 5572 5573 5572 5574 5567 5559 5545 5538 5531 5531 5538 5534 5516 5493 5484 5475 5472 5469 5471 5483 5496 5494 5517 5512 5477 5477 5484 5494 5518 5512
5541 5550 5561 5574 5583 5592 5600 5606 5612 5614 5619 5622 5609 5609 5615 5592 5552 5560 5571 5567 5557 5559 5559 5547 5539 5537 5527 5536 5524 5504 5480 5462 5448 5436 5437 5452 5464 5473 5485 5505 5485 5482 5482 5503 5517 5515 5508
5539 5550 5562 5572 5581 5589 5596 5604 5610 5613 5618 5621 5599 5604 5613 5579 5546 5548 5549 5556 5553 5554 5561 5538 5539 5536 5536 5525 5509 5482 5468 5443 5439 5425 5417 5422 5446 5462 5473 5498 5493 5486 5498 5505 5492 5496 5512
5539 5549 5561 5571 5579 5585 5593 5602 5605 5612 5616 5617 5600 5596 5602 5593 5542 5536 5534 5534 5535 5538 5546 5532 5534 5528 5517 5512 5496 5482 5467 5452 5445 5436 5440 5436 5434 5449 5459 5479 5480 5478 5479 5490 5496 5507 5515